www.pogodaiklimat.ru

Погода и климат >> Архив погоды >> Украина >> Дружба


ПОГОДА в Дружбе

  • Прогноз погоды в Дружбе
  • Монитор погоды в Дружбе

АРХИВ ПОГОДЫ в Дружбе

Время (UTC), дата Ветер
(напр.,м/с)
 
Видим.   Явления Облачность Т
(С)
Тd
(С)
f
(%)
Тe
(С)
Тes
(С)
Комфортность P
(гПа)
Po
(гПа)
Тmin
(С)
Tmax
(С)
R
(мм)
R24
(мм)
S
(см)
12 17.06 ЮЗ 2 20 км 6/4 600 м
[Cu hum Ci fib]
+27.6 +12.4 39 +29 +34 жарко 1015.0 993.4
15 17.06 Ю 1 20 км 6/0
[Ac trans]
+26.2 +14.0 47 +28 +30 жарко 1014.0 992.3
18 17.06 штиль 0 20 км 4/0
[Ci fib]
+23.2 +16.5 66 +28 +28 душно 1014.0 992.1 +29.1
21 17.06 штиль 0 10 км 4/0
[Ac trans]
+19.7 +15.5 77 +22 +22 комфорт 1015.0 992.8
00 18.06 штиль 0 10 км 4/0
[Ac trans]
+18.2 +15.3 83 +18 +18 1014.0 991.7
03 18.06 штиль 0 9000 м дымка 4/0
[Ac trans]
+16.2 +14.7 91 +16 +17 1015.0 992.6
06 18.06 З 2 20 км 3/0
[Ac trans]
+22.7 +17.8 74 +28 +34 душно 1014.0 992.1 +15.3
09 18.06 З 3 20 км 6/6 600 м
[Cu med, cong]
+25.9 +17.0 58 +30 +35 душно 1014.0 992.3
12 18.06 З 3 20 км 8/8 600 м
[Cu med, cong]
+27.1 +14.8 47 +30 +30 душно 1014.0 992.4
15 18.06 З 2 20 км 6/6 600 м
[Cu med, cong]
+27.7 +13.6 42 +30 +31 жарко 1013.0 991.4
18 18.06 СЗ 2 20 км 4/4 600 м
[Sc]
+23.8 +15.6 60 +27 +27 жарко 1014.0 992.2 +28.1
21 18.06 СВ 1 10 км ясно +19.9 +15.5 76 +23 +23 комфорт 1016.0 993.8
00 19.06 С 1 10 км 3/0
[Ac trans]
+17.4 +14.8 85 +18 +18 1016.0 993.6
03 19.06 С 1 20 км ясно +16.9 +14.5 86 +18 +19 1016.0 993.6
06 19.06 СВ 1 20 км ясно +22.7 +16.2 67 +27 +37 душно 1017.0 995.0 +16.7
09 19.06 СВ 2 20 км 6/6 600 м
[Cu med, cong]
+27.3 +15.3 48 +30 +37 душно 1016.0 994.4
12 19.06 С 3 20 км 6/4 600 м
[Cu med, cong Ci fib]
+28.0 +13.1 40 +30 +36 жарко 1016.0 994.4
15 19.06 С 2 20 км 8/5 600 м
[Cu med, cong Ci fib]
+28.5 +14.7 43 +31 +31 душно 1015.0 993.5
18 19.06 СВ 1 20 км 4/0
[Ac trans Ci fib]
+23.9 +16.7 64 +27 +27 жарко 1015.0 993.2 +31.0
21 19.06 штиль 0 10 км 3/0
[Ci fib]
+16.8 +15.0 89 +17 +17 1016.0 993.6
00 20.06 штиль 0 4000 м дымка 3/0
[Ci fib]
+14.3 +13.0 92 +14 +14 1018.0 995.3
03 20.06 штиль 0 20 км 6/0
[Ac trans Ci fib]
+15.2 +12.9 86 +15 +15 1018.0 995.4
06 20.06 ЮВ 1 20 км 6/0
[Ci fib]
+23.4 +14.1 56 +27 +31 душно 1017.0 995.1 +13.7
09 20.06 В 2 20 км 6/0
[Ci fib]
+27.1 +12.3 40 +29 +35 жарко 1017.0 995.3
12 20.06 СВ 1 20 км 8/3 600 м
[Cu hum Ci fib]
+29.4 +14.0 39 +31 +31 жарко 1016.0 994.5
15 20.06 ЮВ 1 20 км 8/0
[Cs]
+27.9 +13.0 40 +30 +30 жарко 1016.0 994.4
18 20.06 ЮВ 1 20 км 3/0
[Ci fib]
+22.7 +15.0 62 +27 +27 душно 1015.0 993.1 +29.6
21 20.06 ЮВ 1 10 км 3/0
[Ci fib]
+15.2 +12.5 84 +16 +16 1017.0 994.4
00 21.06 штиль 0 10 км 3/0
[Ci fib]
+14.5 +12.0 85 +14 +14 1018.0 995.3
03 21.06 штиль 0 20 км 6/0
[Ac trans Ci fib]
+14.3 +12.5 89 +14 +14 1018.0 995.3
06 21.06 ЮВ 1 20 км 4/0
[Ac trans Ci fib]
+23.9 +15.9 61 +27 +34 жарко 1017.0 995.1 +13.4
09 21.06 ЮВ 2 20 км 6/6 600 м
[Cu med, cong]
+29.5 +12.8 36 +31 +37 жарко 1017.0 995.5
12 21.06 ЮВ 2 20 км 8/8 600 м
[Cu med, cong]
+31.1 +12.9 33 +32 +32 жарко 1016.0 994.6
15 21.06 ЮВ 1 20 км 4/4 600 м
[Cu med, cong]
+31.1 +12.4 32 +32 +35 жарко 1015.0 993.6
18 21.06 ЮВ 1 20 км ясно +27.1 +14.8 47 +30 +30 душно 1015.0 993.4 +32.2
21 21.06 штиль 0 10 км ясно +17.7 +13.2 75 +18 +18 1017.0 994.6
00 22.06 штиль 0 10 км 6/6 600 м
[Sc]
+16.3 +13.8 85 +16 +16 1017.0 994.5
03 22.06 В 1 10 км 10 баллов +18.7 +15.4 81 +21 +21 комфорт 1017.0 994.7
06 22.06 В 1 20 км 4/0
[Ac trans]
+25.8 +15.8 54 +29 +36 душно 1017.0 995.2 +15.9
09 22.06 ЮВ 2 10 км 3 балла +31.8 +13.0 32 +33 +44 жарко 1016.0 994.7
12 22.06 Ю 2 20 км 6/6 600 м
[Cu med, cong]
+32.1 +12.3 30 +33 +38 жарко 1016.0 994.7
15 22.06 ЮВ 1 10 км 3 балла +32.6 +14.2 33 +34 +37 очень
жарко
1015.0 993.8
18 22.06 штиль 0 20 км 3/0
[Ac trans]
+27.4 +18.1 57 +32 +32 очень
душно
1016.0 994.4 +34.6
21 22.06 ЮВ 1 10 км 3 балла +20.8 +17.0 79 +26 +26 душно 1016.0 993.9
00 23.06 штиль 0 10 км 4/0
[Ac trans]
+17.7 +15.5 87 +18 +18 1017.0 994.6
03 23.06 ЮВ 1 10 км 3 балла +19.3 +15.4 78 +22 +23 комфорт 1017.0 994.8
06 23.06 штиль 0 20 км 3/0
[Ci fib]
+28.2 +16.8 50 +32 +40 душно 1017.0 995.4 +17.4
09 23.06 ЮВ 2 10 км 3 балла +32.8 +11.3 27 +33 +44 жарко 1016.0 994.7
12 23.06 ЮЗ 3 20 км 8/3 600 м
[Cu hum Ac trans]
+33.6 +12.0 27 +34 +34 очень
жарко
1015.0 993.8
15 23.06 Ю 2 10 км 10 баллов +31.4 +12.7 32 +32 +32 жарко 1015.0 993.7
18 23.06 С 2 20 км 8/0
[Ac trans]
+22.8 +15.6 64 +27 +27 душно 1017.0 995.0 +34.1
21 23.06 С 3 10 км 10 баллов +19.9 +15.3 75 +22 +22 комфорт 1018.0 995.8
00 24.06 С 3 10 км 8/0
[Ac trans]
+18.1 +14.8 81 +18 +18 1018.0 995.6
03 24.06 С 2 10 км 10 баллов +16.5 +15.0 91 +17 +17 1019.0 996.5
06 24.06 С 2 10 км 3 балла +21.2 +16.4 74 +25 +31 комфорт 1020.0 997.8 +15.9

 

Местоположение метеостанции Дружба (Сумская область, Украина): широта 52.05 долгота 33.95 высота над уровнем моря 190 м.

В архиве по умолчанию представлена погода в Дружбе за последнюю неделю. Архивные данные за месяц целиком и за предыдущие месяцы, начиная с января 2011 года, Вы можете получить, выбрав интересующий диапазон дат из раскрывающегося списка и нажав кнопку "Ввод!".


*Определитесь, кто Вы:
робот инопланетянин человек

Внимание! Время в таблицах - всемирное. Для получения местного времени необходимо прибавить поправку, которая равна 2 ч.

Смотрите также архив погоды в соседних городах и на ближайших метеорологических станциях:

Погода в Глухове (Сумская область, Украина) (41 км)
Погода в Трубчевске (Брянская область, Россия) (60 км)
Погода в Рыльск (Курская область, Россия) (73 км)
Погода в Навле (Брянская область, Россия) (94 км)
Погода в Семеновке (Черниговская область, Украина) (95 км)
Погода в Дмитровск-Орловский (Орловская область, Россия) (96 км)
Погода в Железногорске (Курская область, Россия) (102 км)
Погода в Конотопе (Сумская область, Украина) (105 км)
Погода в Унече (Брянская область, Россия) (123 км)
Погода в Курчатове (Курская область, Россия) (127 км)

Пояснения к столбцам:

Ветер - указаны скорость ветра в м/с - средняя за 10 мин, порывы в срок и между сроками (в фигурных скобках) и направление, откуда дует ветер: С - северный, СВ - северо-восточный, В - восточный, ЮВ - юго-восточный, Ю - южный, ЮЗ - юго-западный, З - западный, СЗ - северо-западный.
Видимость - горизонтальная дальность видимости в метрах или километрах. При видимости от 1 до 10 км при отсутствии осадков обычно наблюдается дымка, при ухудшении видимости до 1 км и менее - туман. В сухую погоду видимость может ухудшаться дымом, пылью или мглою.
Явления - указаны атмосферные явления, наблюдавшиеся в срок или в последний час перед сроком; фигурными скобками обозначены явления, наблюдавшиеся между сроками (за 1-3 часа до срока); квадратными скобками обозначены град или гололедные отложения с указанием их диаметра в мм.
Облачность - указаны через наклонную черту общая и нижняя облачность в баллах и высота нижней границы облаков в метрах; квадратными скобками обозначены формы облаков: Ci - перистые, Cs - перисто-слоистые, Cc - перисто-кучевые, Ac - высококучевые, As - высокослоистые, Sc - слоисто-кучевые, Ns - слоисто-дождевые, Cu - кучевые, Cb - кучево-дождевые. Подробнее классификацию облаков см. в Атласе облаков (PDF).
T - Температура воздуха - температура, измеренная на высоте 2 м над землей.
Td - Температура точки росы - температура, при понижении до которой содержащийся в воздухе водяной пар достигнет насыщения.
f - Относительная влажность воздуха - влажноcть воздуха, измеренная на высоте 2 м над землей.
Te - Эффективная температура - температура, которую ощущает одетый по сезону человек в тени. Характеристика душности погоды. При расчете учитывается влияние влажности воздуха и скорости ветра на теплоощущения человека.
Tes - Эффективная температура на солнце - температура, которую ощущает человек, с поправкой на солнечный нагрев. Характеристика знойности погоды. Зависит от высоты солнца над горизонтом, облачности и скорости ветра. Ночью, в пасмурную погоду, а также при ветре 12 м/с и более поправка равна нулю.
P - Атмосферное давление - приведенное к уровню моря атмосферное давление.
Po - Атмосферное давление - измеренное на уровне метеостанции атмосферное давление.
Tmin - Минимальная температура - минимум температуры воздуха на высоте 2 м над землей.
Tmax - Максимальная температура - максимум температуры воздуха на высоте 2 м над землей.
R - Количество осадков - Количество выпавших осадков за период времени, мм. При наведении курсора мыши на число - период времени, за который выпало указанное количество осадков.
R24 - Количество осадков - Количество выпавших осадков за 24 часа, мм.
S - Снежный покров - Высота снежного покрова, см. При наведении курсора мыши на число - состояние снежного покрова и степень покрытия местности в баллах.